contact:dominique.lefevre@mio.osupytheas.fr, maurice.libes@osupytheas.fr, didier.mallarino@osupytheas.fr
Project:EMSO http://www.emso-fr.org/EMSO-France
Depth: 2436.0 m
Title:EMSO Ligure Ouest : Data MII capteur AQUADOPP
Date,Latitude,Longitude,X_East,Y_North,Z_Up,Amplitude_X,Amplitude_Y,Amplitude_Z,Batterie,SoundSpeed,Heading,Pitch,Roll,Pressure,TIS,Speed,Direction
, degrees North, degrees East, m.s-1, m.s-1,m.s-1, 1, 1, 1, Volt, m.s-1, degree, degree, degree, dbar, degree_C, m.s-1, degree
2021-08-18T00:04:02,42.805,6.029,-0.018,0.0,-0.004,106.0,108.0,104.0,13.4,1505.2,329.0,-0.8,1.8,2470.555,13.29,0.018,270.0
2021-08-18T00:07:02,42.805,6.029,-0.019,0.004,-0.044,107.0,105.0,104.0,13.3,1505.2,327.2,-0.8,1.8,2470.553,13.29,0.019,281.9
2021-08-18T00:10:03,42.805,6.029,-0.002,0.004,0.012,106.0,105.0,104.0,13.3,1505.2,327.4,-0.8,1.8,2470.548,13.29,0.004,333.4
2021-08-18T00:13:03,42.805,6.029,-0.014,0.009,-0.016,107.0,106.0,105.0,13.4,1505.2,326.4,-0.7,1.8,2470.553,13.29,0.016,302.7
2021-08-18T00:16:03,42.805,6.029,0.006,0.0,0.006,107.0,106.0,104.0,13.4,1505.2,329.0,-0.8,1.9,2470.546,13.29,0.006,90.0
2021-08-18T00:19:03,42.805,6.029,-0.02,0.006,-0.005,107.0,105.0,104.0,13.3,1505.2,329.5,-0.8,1.9,2470.525,13.29,0.02,286.7
2021-08-18T00:22:02,42.805,6.029,-0.02,0.004,-0.009,106.0,107.0,103.0,13.3,1505.2,325.6,-0.8,1.8,2470.54,13.29,0.02,281.3
2021-08-18T00:25:03,42.805,6.029,-0.013,0.016,0.007,106.0,107.0,104.0,13.3,1505.2,327.4,-0.8,1.8,2470.551,13.29,0.02,320.9
2021-08-18T00:28:03,42.805,6.029,0.008,-0.008,-0.001,106.0,107.0,105.0,13.4,1505.2,330.0,-0.8,1.8,2470.537,13.29,0.011,135.0
2021-08-18T00:31:03,42.805,6.029,0.001,0.014,-0.032,107.0,107.0,104.0,13.4,1505.2,327.4,-0.8,1.8,2470.58,13.29,0.014,4.1
2021-08-18T00:34:03,42.805,6.029,0.007,0.029,0.01,107.0,106.0,104.0,13.4,1505.2,326.5,-0.7,1.8,2470.525,13.29,0.029,13.6
2021-08-18T00:37:02,42.805,6.029,-0.012,0.021,0.001,106.0,106.0,105.0,13.3,1505.2,327.0,-0.8,1.8,2470.584,13.29,0.024,330.3
2021-08-18T00:40:03,42.805,6.029,-0.01,0.008,0.009,106.0,106.0,104.0,13.4,1505.2,327.6,-0.8,1.8,2470.499,13.29,0.012,308.7
2021-08-18T00:43:03,42.805,6.029,0.001,0.011,-0.002,107.0,106.0,104.0,13.3,1505.2,326.6,-0.8,1.8,2470.565,13.29,0.011,5.2
2021-08-18T00:46:03,42.805,6.029,-0.025,0.019,0.017,106.0,106.0,103.0,13.3,1505.2,328.7,-0.7,1.8,2470.576,13.29,0.031,307.2
2021-08-18T00:49:03,42.805,6.029,-0.031,0.006,-0.008,106.0,107.0,104.0,13.3,1505.2,328.0,-0.8,1.8,2470.55,13.29,0.031,281.0
2021-08-18T00:52:02,42.805,6.029,-0.025,-0.001,-0.02,107.0,106.0,104.0,13.4,1505.2,326.4,-0.7,1.8,2470.541,13.29,0.025,267.7
2021-08-18T00:55:03,42.805,6.029,-0.025,0.004,-0.017,105.0,105.0,105.0,13.4,1505.2,331.0,-0.8,1.8,2470.552,13.29,0.025,279.1
2021-08-18T00:58:03,42.805,6.029,-0.022,-0.005,-0.013,108.0,106.0,103.0,13.4,1505.2,326.7,-0.8,1.8,2470.531,13.29,0.022,257.2
2021-08-18T01:04:02,42.805,6.029,-0.04,0.009,0.015,110.0,107.0,106.0,13.3,1505.2,331.1,-0.8,1.8,2470.607,13.29,0.041,282.7
2021-08-18T01:07:03,42.805,6.029,-0.023,0.012,-0.004,108.0,108.0,104.0,13.4,1505.2,326.3,-0.8,1.8,2470.557,13.29,0.025,297.6
2021-08-18T01:10:03,42.805,6.029,-0.029,-0.012,-0.027,106.0,107.0,105.0,13.4,1505.2,325.3,-0.8,1.8,2470.573,13.29,0.031,247.5
2021-08-18T01:13:03,42.805,6.029,-0.026,0.001,0.019,106.0,106.0,104.0,13.4,1505.2,325.0,-0.8,1.8,2470.614,13.29,0.026,272.2
2021-08-18T01:16:03,42.805,6.029,-0.025,0.019,-0.006,107.0,107.0,104.0,13.4,1505.2,328.5,-0.8,1.8,2470.578,13.29,0.031,307.2
2021-08-18T01:19:03,42.805,6.029,-0.05,0.02,0.009,108.0,106.0,104.0,13.4,1505.2,326.6,-0.8,1.8,2470.57,13.29,0.053,291.8
2021-08-18T01:22:03,42.805,6.029,-0.027,0.023,0.002,106.0,106.0,104.0,13.3,1505.2,326.6,-0.7,1.9,2470.566,13.29,0.035,310.4
2021-08-18T01:25:03,42.805,6.029,-0.018,0.02,0.0,106.0,106.0,104.0,13.4,1505.2,330.2,-0.7,1.8,2470.546,13.29,0.026,318.0
2021-08-18T01:28:03,42.805,6.029,-0.018,0.018,0.003,104.0,106.0,104.0,13.4,1505.2,325.5,-0.7,1.8,2470.591,13.29,0.025,315.0
2021-08-18T01:31:03,42.805,6.029,-0.023,0.013,0.01,106.0,107.0,104.0,13.4,1505.2,325.1,-0.8,1.8,2470.555,13.29,0.026,299.5
2021-08-18T01:34:03,42.805,6.029,-0.031,0.015,-0.011,106.0,107.0,105.0,13.4,1505.2,329.3,-0.8,1.8,2470.556,13.29,0.034,295.8
2021-08-18T01:37:02,42.805,6.029,-0.024,0.015,-0.007,106.0,108.0,104.0,13.4,1505.2,330.7,-0.7,1.8,2470.607,13.29,0.028,302.0
2021-08-18T01:40:03,42.805,6.029,-0.026,0.028,0.011,108.0,106.0,104.0,13.4,1505.2,326.9,-0.8,1.8,2470.562,13.29,0.038,317.1
2021-08-18T01:43:03,42.805,6.029,-0.019,0.013,-0.037,106.0,107.0,104.0,13.3,1505.2,326.9,-0.8,1.8,2470.568,13.29,0.023,304.4
2021-08-18T01:46:03,42.805,6.029,-0.026,0.018,0.001,108.0,105.0,104.0,13.4,1505.2,331.0,-0.8,1.8,2470.58,13.29,0.031,304.7
2021-08-18T01:49:03,42.805,6.029,-0.02,0.027,-0.005,107.0,105.0,104.0,13.4,1505.2,329.0,-0.8,1.8,2470.544,13.29,0.033,323.5
2021-08-18T01:52:03,42.805,6.029,-0.032,0.006,-0.001,106.0,106.0,104.0,13.4,1505.2,324.8,-0.8,1.8,2470.574,13.29,0.032,280.6
2021-08-18T01:55:03,42.805,6.029,-0.01,0.003,0.001,108.0,106.0,103.0,13.3,1505.2,327.8,-0.8,1.9,2470.597,13.29,0.01,286.7
2021-08-18T01:58:03,42.805,6.029,-0.044,-0.009,-0.023,106.0,106.0,104.0,13.4,1505.2,329.3,-0.7,1.8,2470.553,13.29,0.044,258.4
2021-08-18T02:04:02,42.805,6.029,-0.03,0.04,0.012,107.0,106.0,104.0,13.3,1505.2,326.0,-0.8,1.8,2470.641,13.28,0.05,323.1
2021-08-18T02:07:03,42.805,6.029,-0.02,0.031,-0.007,106.0,107.0,104.0,13.3,1505.2,330.7,-0.8,1.8,2470.582,13.28,0.036,327.2
2021-08-18T02:10:03,42.805,6.029,-0.053,0.017,0.011,105.0,106.0,105.0,13.4,1505.2,328.1,-0.8,1.8,2470.625,13.29,0.055,287.8
2021-08-18T02:13:03,42.805,6.029,-0.032,0.018,-0.038,106.0,107.0,104.0,13.4,1505.2,325.8,-0.7,1.8,2470.61,13.29,0.036,299.4
2021-08-18T02:16:03,42.805,6.029,-0.056,0.003,-0.004,107.0,109.0,103.0,13.4,1505.2,328.0,-0.8,1.8,2470.577,13.29,0.056,273.1
2021-08-18T02:19:03,42.805,6.029,-0.015,0.004,-0.033,105.0,105.0,104.0,13.4,1505.2,328.8,-0.8,1.8,2470.586,13.29,0.015,284.9
2021-08-18T02:22:03,42.805,6.029,-0.009,0.012,0.019,106.0,106.0,105.0,13.3,1505.2,326.3,-0.7,1.8,2470.575,13.29,0.015,323.1
2021-08-18T02:25:03,42.805,6.029,-0.021,0.031,0.001,106.0,105.0,103.0,13.4,1505.2,328.7,-0.8,1.8,2470.598,13.29,0.037,325.9
2021-08-18T02:28:03,42.805,6.029,-0.029,0.024,0.017,108.0,106.0,102.0,13.4,1505.2,329.2,-0.8,1.8,2470.606,13.29,0.037,309.6
2021-08-18T02:31:03,42.805,6.029,-0.028,0.034,0.005,105.0,106.0,104.0,13.3,1505.2,328.9,-0.8,1.8,2470.606,13.29,0.044,320.5
2021-08-18T02:34:03,42.805,6.029,-0.042,0.018,-0.012,106.0,106.0,104.0,13.4,1505.2,329.7,-0.7,1.8,2470.568,13.29,0.045,293.2
2021-08-18T02:37:03,42.805,6.029,-0.025,-0.002,0.001,106.0,105.0,104.0,13.4,1505.2,328.6,-0.7,1.8,2470.527,13.29,0.025,265.4
2021-08-18T02:40:03,42.805,6.029,-0.032,-0.002,0.006,107.0,106.0,104.0,13.4,1505.2,326.4,-0.7,1.8,2470.571,13.29,0.032,266.4
2021-08-18T02:43:03,42.805,6.029,-0.05,0.024,0.001,107.0,106.0,104.0,13.4,1505.2,326.7,-0.7,1.8,2470.614,13.29,0.055,295.6
2021-08-18T02:46:03,42.805,6.029,-0.051,0.022,0.014,107.0,107.0,103.0,13.4,1505.2,326.5,-0.7,1.8,2470.569,13.29,0.055,293.3
2021-08-18T02:49:03,42.805,6.029,-0.026,0.016,0.016,107.0,107.0,104.0,13.4,1505.2,330.8,-0.8,1.8,2470.582,13.29,0.03,301.6
2021-08-18T02:52:03,42.805,6.029,-0.029,0.024,0.011,106.0,106.0,105.0,13.4,1505.2,326.1,-0.8,1.8,2470.577,13.29,0.037,309.6
2021-08-18T02:55:03,42.805,6.029,-0.041,0.035,0.03,107.0,107.0,103.0,13.4,1505.2,330.6,-0.7,1.9,2470.56,13.29,0.053,310.5
2021-08-18T02:58:03,42.805,6.029,-0.016,0.024,-0.031,105.0,106.0,104.0,13.4,1505.2,329.7,-0.8,1.8,2470.565,13.29,0.028,326.3
2021-08-18T03:04:02,42.805,6.029,-0.038,0.031,0.007,105.0,106.0,103.0,13.4,1505.2,330.9,-0.7,1.8,2470.568,13.28,0.049,309.2
2021-08-18T03:07:03,42.805,6.029,-0.04,0.042,0.0,106.0,106.0,104.0,13.4,1505.2,327.0,-0.8,1.8,2470.606,13.28,0.057,316.4
2021-08-18T03:10:03,42.805,6.029,-0.028,-0.001,0.004,107.0,106.0,104.0,13.4,1505.2,328.8,-0.7,1.8,2470.586,13.28,0.028,268.0
2021-08-18T03:13:03,42.805,6.029,-0.018,0.019,0.007,106.0,107.0,104.0,13.4,1505.2,325.0,-0.8,1.8,2470.67,13.28,0.026,316.5
2021-08-18T03:16:03,42.805,6.029,-0.022,0.008,0.024,107.0,106.0,104.0,13.4,1505.2,327.8,-0.7,1.8,2470.577,13.29,0.023,290.0
2021-08-18T03:19:03,42.805,6.029,-0.024,0.008,-0.014,107.0,108.0,105.0,13.4,1505.2,328.2,-0.7,1.8,2470.565,13.29,0.025,288.4
2021-08-18T03:22:03,42.805,6.029,-0.052,0.012,0.0,108.0,106.0,102.0,13.4,1505.2,327.6,-0.8,1.8,2470.54,13.29,0.053,283.0
2021-08-18T03:25:03,42.805,6.029,-0.026,0.014,0.03,106.0,107.0,104.0,13.4,1505.2,329.5,-0.7,1.8,2470.603,13.29,0.029,298.3
2021-08-18T03:28:03,42.805,6.029,-0.033,0.018,0.038,106.0,106.0,104.0,13.4,1505.2,328.3,-0.8,1.8,2470.582,13.29,0.037,298.6
2021-08-18T03:31:03,42.805,6.029,-0.057,0.015,-0.015,106.0,106.0,104.0,13.3,1505.2,328.1,-0.7,1.8,2470.576,13.29,0.058,284.7
2021-08-18T03:34:03,42.805,6.029,-0.038,0.025,0.005,107.0,106.0,104.0,13.4,1505.2,328.6,-0.8,1.8,2470.566,13.29,0.045,303.3
2021-08-18T03:37:03,42.805,6.029,-0.04,0.016,0.021,107.0,106.0,103.0,13.4,1505.2,326.7,-0.7,1.9,2470.562,13.29,0.043,291.8
2021-08-18T03:40:03,42.805,6.029,-0.041,0.017,-0.009,105.0,106.0,105.0,13.4,1505.2,328.8,-0.7,1.8,2470.577,13.29,0.044,292.5
2021-08-18T03:43:03,42.805,6.029,-0.059,0.03,-0.002,106.0,106.0,103.0,13.4,1505.2,329.5,-0.7,1.8,2470.593,13.29,0.066,296.9
2021-08-18T03:46:03,42.805,6.029,-0.042,0.039,-0.016,106.0,106.0,104.0,13.4,1505.2,329.6,-0.8,1.9,2470.562,13.29,0.057,312.9
2021-08-18T03:49:03,42.805,6.029,-0.029,0.003,0.0,107.0,107.0,103.0,13.4,1505.2,326.5,-0.7,1.8,2470.592,13.29,0.029,275.9
2021-08-18T03:52:03,42.805,6.029,-0.041,0.008,-0.01,107.0,107.0,104.0,13.3,1505.2,330.7,-0.7,1.8,2470.586,13.29,0.041,281.0
2021-08-18T03:55:03,42.805,6.029,-0.025,0.03,-0.021,107.0,108.0,104.0,13.3,1505.2,329.2,-0.7,1.8,2470.578,13.29,0.039,320.2
2021-08-18T03:58:03,42.805,6.029,-0.044,0.004,-0.012,106.0,107.0,104.0,13.4,1505.2,326.0,-0.8,1.8,2470.578,13.29,0.044,275.2
2021-08-18T04:04:03,42.805,6.029,-0.034,0.01,-0.016,106.0,105.0,104.0,13.4,1505.2,328.3,-0.8,1.8,2470.596,13.28,0.035,286.4
2021-08-18T04:07:03,42.805,6.029,-0.05,0.029,-0.007,107.0,107.0,104.0,13.4,1505.2,329.1,-0.7,1.9,2470.613,13.28,0.057,300.1
2021-08-18T04:10:03,42.805,6.029,-0.047,0.014,-0.013,107.0,106.0,104.0,13.3,1505.2,327.4,-0.8,1.8,2470.577,13.28,0.049,286.6
2021-08-18T04:13:03,42.805,6.029,-0.044,0.037,0.024,106.0,106.0,104.0,13.3,1505.2,328.9,-0.8,1.8,2470.591,13.28,0.057,310.1
2021-08-18T04:16:03,42.805,6.029,-0.025,0.025,0.014,107.0,106.0,103.0,13.3,1505.2,326.6,-0.7,1.8,2470.553,13.28,0.035,315.0
2021-08-18T04:19:03,42.805,6.029,-0.071,0.0,-0.021,106.0,106.0,104.0,13.3,1505.2,327.8,-0.7,1.8,2470.609,13.28,0.07,270.0
2021-08-18T04:22:03,42.805,6.029,-0.051,0.017,0.0,107.0,104.0,104.0,13.4,1505.2,330.2,-0.7,1.8,2470.571,13.28,0.053,288.4
2021-08-18T04:25:03,42.805,6.029,-0.058,0.015,-0.01,108.0,106.0,105.0,13.4,1505.2,327.0,-0.7,1.8,2470.593,13.29,0.059,284.5
2021-08-18T04:28:03,42.805,6.029,-0.048,0.026,0.001,106.0,106.0,104.0,13.4,1505.2,328.5,-0.7,1.8,2470.588,13.29,0.054,298.4
2021-08-18T04:31:03,42.805,6.029,-0.036,0.029,0.009,107.0,105.0,104.0,13.4,1505.2,325.1,-0.7,1.8,2470.58,13.29,0.046,308.9
2021-08-18T04:34:03,42.805,6.029,-0.035,0.045,-0.024,107.0,106.0,104.0,13.4,1505.2,326.4,-0.7,1.8,2470.551,13.29,0.057,322.1
2021-08-18T04:37:03,42.805,6.029,-0.062,0.029,0.008,107.0,106.0,105.0,13.4,1505.2,329.0,-0.8,1.8,2470.578,13.29,0.068,295.1
2021-08-18T04:40:03,42.805,6.029,-0.06,0.029,0.017,106.0,106.0,103.0,13.4,1505.2,325.8,-0.8,1.8,2470.564,13.28,0.066,295.8
2021-08-18T04:43:03,42.805,6.029,-0.031,0.056,0.022,106.0,105.0,103.0,13.4,1505.2,330.4,-0.7,1.8,2470.562,13.28,0.064,331.0
2021-08-18T04:46:03,42.805,6.029,-0.04,0.015,-0.006,107.0,107.0,104.0,13.4,1505.2,327.1,-0.7,1.8,2470.593,13.28,0.042,290.6
2021-08-18T04:49:03,42.805,6.029,-0.053,0.009,0.013,106.0,106.0,104.0,13.4,1505.2,328.4,-0.7,1.8,2470.591,13.29,0.053,279.6
2021-08-18T04:52:03,42.805,6.029,-0.036,0.008,0.009,109.0,105.0,104.0,13.3,1505.2,331.0,-0.8,1.8,2470.553,13.29,0.036,282.5
2021-08-18T04:55:03,42.805,6.029,-0.037,0.034,-0.034,105.0,106.0,103.0,13.4,1505.2,328.0,-0.7,1.8,2470.561,13.29,0.05,312.6
2021-08-18T04:58:03,42.805,6.029,-0.038,0.022,0.006,107.0,106.0,103.0,13.4,1505.2,329.0,-0.7,1.8,2470.58,13.29,0.043,300.1
2021-08-18T05:04:03,42.805,6.029,-0.048,0.038,0.023,106.0,105.0,104.0,13.4,1505.2,327.1,-0.7,1.8,2470.577,13.28,0.061,308.4
2021-08-18T05:07:03,42.805,6.029,-0.055,0.008,0.005,107.0,105.0,103.0,13.4,1505.2,326.9,-0.7,1.8,2470.589,13.28,0.055,278.3
2021-08-18T05:10:03,42.805,6.029,-0.057,0.032,0.013,106.0,105.0,104.0,13.3,1505.2,328.7,-0.7,1.8,2470.561,13.28,0.065,299.3
2021-08-18T05:13:03,42.805,6.029,-0.043,0.022,-0.006,106.0,105.0,104.0,13.4,1505.2,326.6,-0.7,1.8,2470.598,13.28,0.048,297.1
2021-08-18T05:16:03,42.805,6.029,-0.059,0.019,-0.007,106.0,105.0,103.0,13.4,1505.2,327.0,-0.8,1.8,2470.555,13.28,0.061,287.8
2021-08-18T05:19:03,42.805,6.029,-0.052,0.029,0.0,105.0,106.0,103.0,13.4,1505.2,328.2,-0.7,1.8,2470.577,13.28,0.059,299.1
2021-08-18T05:22:03,42.805,6.029,-0.062,0.033,-0.005,105.0,106.0,103.0,13.3,1505.2,327.4,-0.7,1.8,2470.592,13.28,0.07,298.0
2021-08-18T05:25:03,42.805,6.029,-0.048,0.003,0.017,106.0,105.0,103.0,13.3,1505.2,327.9,-0.7,1.8,2470.608,13.29,0.048,273.6
2021-08-18T05:28:03,42.805,6.029,-0.038,0.017,-0.003,106.0,107.0,104.0,13.4,1505.2,326.2,-0.8,1.8,2470.53,13.29,0.041,294.1
2021-08-18T05:31:03,42.805,6.029,-0.035,0.035,0.002,108.0,106.0,104.0,13.4,1505.2,325.5,-0.8,1.8,2470.556,13.29,0.049,315.0
2021-08-18T05:34:03,42.805,6.029,-0.035,0.019,-0.004,106.0,106.0,104.0,13.4,1505.2,329.2,-0.7,1.8,2470.591,13.29,0.039,298.5
2021-08-18T05:37:03,42.805,6.029,-0.044,0.024,0.0,106.0,106.0,103.0,13.4,1505.2,326.0,-0.7,1.8,2470.549,13.28,0.05,298.6
2021-08-18T05:40:03,42.805,6.029,-0.029,0.026,0.0,107.0,105.0,103.0,13.4,1505.2,328.8,-0.8,1.8,2470.55,13.29,0.038,311.9
2021-08-18T05:43:03,42.805,6.029,-0.037,0.016,0.0,106.0,106.0,104.0,13.4,1505.2,327.8,-0.7,1.8,2470.511,13.29,0.04,293.4
2021-08-18T05:46:03,42.805,6.029,-0.025,0.009,0.004,106.0,106.0,104.0,13.4,1505.2,325.1,-0.7,1.8,2470.532,13.29,0.026,289.8
2021-08-18T05:49:03,42.805,6.029,-0.035,0.016,0.006,106.0,106.0,104.0,13.3,1505.2,329.7,-0.7,1.8,2470.535,13.29,0.038,294.6
2021-08-18T05:52:03,42.805,6.029,-0.032,0.025,-0.025,107.0,106.0,104.0,13.4,1505.2,328.9,-0.8,1.8,2470.52,13.29,0.04,308.0
2021-08-18T05:55:03,42.805,6.029,-0.031,0.028,0.039,107.0,106.0,104.0,13.4,1505.2,328.3,-0.8,1.8,2470.548,13.29,0.041,312.1
2021-08-18T05:58:03,42.805,6.029,-0.048,0.029,0.043,106.0,106.0,103.0,13.4,1505.2,330.5,-0.7,1.8,2470.513,13.28,0.056,301.1
2021-08-18T06:04:03,42.805,6.029,-0.044,0.041,0.019,106.0,105.0,103.0,13.4,1505.2,329.9,-0.8,1.8,2470.566,13.28,0.06,313.0
2021-08-18T06:07:03,42.805,6.029,-0.035,0.015,-0.004,108.0,105.0,104.0,13.4,1505.2,328.0,-0.7,1.9,2470.524,13.28,0.038,293.2
2021-08-18T06:10:03,42.805,6.029,-0.058,0.031,-0.031,106.0,105.0,103.0,13.4,1505.2,325.3,-0.7,1.9,2470.58,13.28,0.065,298.1
2021-08-18T06:13:03,42.805,6.029,-0.047,0.036,0.033,106.0,106.0,103.0,13.4,1505.2,329.2,-0.7,1.8,2470.564,13.28,0.059,307.5
2021-08-18T06:16:03,42.805,6.029,-0.05,0.03,0.004,107.0,104.0,103.0,13.4,1505.2,328.7,-0.8,1.8,2470.538,13.28,0.058,301.0
2021-08-18T06:19:03,42.805,6.029,-0.053,0.022,-0.006,106.0,106.0,103.0,13.4,1505.2,328.5,-0.7,1.8,2470.555,13.28,0.057,292.5
2021-08-18T06:22:03,42.805,6.029,-0.049,0.043,0.02,105.0,106.0,104.0,13.3,1505.2,325.0,-0.8,1.8,2470.552,13.28,0.065,311.3
2021-08-18T06:25:03,42.805,6.029,-0.023,0.03,0.004,105.0,107.0,103.0,13.3,1505.2,327.0,-0.8,1.8,2470.574,13.28,0.037,322.5
2021-08-18T06:28:03,42.805,6.029,-0.031,0.028,0.003,106.0,106.0,103.0,13.4,1505.2,328.0,-0.8,1.8,2470.535,13.29,0.041,312.1
2021-08-18T06:31:03,42.805,6.029,-0.024,0.019,0.02,106.0,107.0,103.0,13.4,1505.2,327.8,-0.7,1.8,2470.529,13.29,0.03,308.4
2021-08-18T06:34:03,42.805,6.029,-0.03,0.026,-0.008,107.0,106.0,104.0,13.4,1505.2,328.5,-0.8,1.8,2470.54,13.29,0.039,310.9
2021-08-18T06:37:03,42.805,6.029,-0.031,0.025,0.0,107.0,107.0,103.0,13.4,1505.2,328.7,-0.8,1.8,2470.532,13.29,0.039,308.9
2021-08-18T06:40:03,42.805,6.029,-0.054,0.034,-0.002,106.0,107.0,104.0,13.4,1505.2,327.4,-0.8,1.8,2470.559,13.29,0.063,302.2
2021-08-18T06:43:03,42.805,6.029,-0.052,0.034,0.0,107.0,105.0,104.0,13.4,1505.2,330.4,-0.8,1.8,2470.572,13.29,0.062,303.2
2021-08-18T06:46:03,42.805,6.029,-0.044,0.019,0.005,106.0,106.0,105.0,13.4,1505.2,325.7,-0.7,1.8,2470.533,13.29,0.047,293.4
2021-08-18T06:49:03,42.805,6.029,-0.015,0.024,-0.022,107.0,107.0,104.0,13.4,1505.2,328.9,-0.7,1.8,2470.513,13.29,0.028,328.0
2021-08-18T06:52:03,42.805,6.029,-0.033,0.026,0.014,107.0,107.0,103.0,13.4,1505.2,328.8,-0.8,1.8,2470.478,13.29,0.042,308.2
2021-08-18T06:55:03,42.805,6.029,-0.038,0.01,0.014,108.0,105.0,104.0,13.3,1505.2,330.4,-0.7,1.8,2470.535,13.29,0.039,284.7
2021-08-18T06:58:03,42.805,6.029,-0.037,0.032,0.026,106.0,107.0,104.0,13.4,1505.2,329.8,-0.8,1.8,2470.532,13.29,0.048,310.9
2021-08-18T07:04:03,42.805,6.029,-0.044,0.017,-0.003,107.0,105.0,103.0,13.4,1505.2,329.3,-0.8,1.8,2470.538,13.28,0.047,291.1
2021-08-18T07:07:03,42.805,6.029,-0.036,0.025,-0.001,106.0,106.0,103.0,13.3,1505.2,325.6,-0.8,1.8,2470.558,13.28,0.043,304.8
2021-08-18T07:10:03,42.805,6.029,-0.038,0.031,-0.01,106.0,106.0,104.0,13.4,1505.2,330.3,-0.8,1.8,2470.525,13.28,0.049,309.2
2021-08-18T07:13:03,42.805,6.029,-0.029,0.02,0.0,107.0,106.0,104.0,13.3,1505.2,329.1,-0.7,1.8,2470.538,13.28,0.035,304.6
2021-08-18T07:16:03,42.805,6.029,-0.061,0.025,-0.032,106.0,106.0,104.0,13.4,1505.2,329.2,-0.8,1.9,2470.53,13.28,0.065,292.3
2021-08-18T07:19:03,42.805,6.029,-0.019,0.033,0.001,107.0,107.0,105.0,13.4,1505.2,328.2,-0.7,1.8,2470.578,13.28,0.038,330.1
2021-08-18T07:22:03,42.805,6.029,-0.053,0.015,0.038,106.0,106.0,103.0,13.4,1505.2,329.8,-0.8,1.9,2470.506,13.29,0.055,285.8
2021-08-18T07:25:03,42.805,6.029,-0.048,0.024,-0.015,106.0,106.0,104.0,13.4,1505.2,327.5,-0.8,1.8,2470.553,13.29,0.053,296.6
2021-08-18T07:28:03,42.805,6.029,-0.042,0.004,-0.029,105.0,106.0,104.0,13.3,1505.2,328.8,-0.7,1.8,2470.507,13.29,0.042,275.4
2021-08-18T07:31:03,42.805,6.029,-0.031,0.033,-0.015,107.0,105.0,104.0,13.3,1505.2,327.8,-0.7,1.8,2470.482,13.29,0.045,316.8
2021-08-18T07:34:03,42.805,6.029,-0.033,0.033,0.012,105.0,107.0,104.0,13.4,1505.2,326.3,-0.7,1.8,2470.508,13.29,0.046,315.0
2021-08-18T07:37:03,42.805,6.029,-0.039,0.054,0.027,105.0,105.0,103.0,13.3,1505.2,328.2,-0.8,1.8,2470.496,13.29,0.066,324.2
2021-08-18T07:40:03,42.805,6.029,-0.043,0.024,-0.003,106.0,106.0,104.0,13.4,1505.2,328.1,-0.8,1.8,2470.53,13.29,0.049,299.2
2021-08-18T07:43:03,42.805,6.029,-0.027,0.014,-0.022,106.0,106.0,103.0,13.3,1505.2,326.3,-0.8,1.8,2470.526,13.29,0.03,297.4
2021-08-18T07:46:03,42.805,6.029,-0.031,0.029,0.009,106.0,106.0,105.0,13.4,1505.2,326.0,-0.8,1.8,2470.504,13.29,0.042,313.1
2021-08-18T07:49:03,42.805,6.029,-0.034,0.034,-0.009,106.0,107.0,104.0,13.4,1505.2,328.9,-0.8,1.8,2470.519,13.29,0.048,315.0
2021-08-18T07:52:03,42.805,6.029,-0.055,0.04,-0.013,107.0,106.0,103.0,13.4,1505.2,328.6,-0.8,1.8,2470.497,13.29,0.068,306.0
2021-08-18T07:55:03,42.805,6.029,-0.043,0.018,-0.003,107.0,106.0,103.0,13.3,1505.2,329.1,-0.8,1.9,2470.507,13.29,0.046,292.7
2021-08-18T07:58:03,42.805,6.029,-0.02,0.025,0.001,107.0,107.0,104.0,13.3,1505.2,330.6,-0.7,1.8,2470.525,13.29,0.032,321.3
2021-08-18T08:04:03,42.805,6.029,-0.033,0.021,0.009,107.0,107.0,104.0,13.4,1505.2,327.0,-0.7,1.8,2470.508,13.28,0.039,302.5
2021-08-18T08:07:03,42.805,6.029,-0.032,0.001,-0.002,106.0,106.0,104.0,13.4,1505.2,330.8,-0.8,1.8,2470.522,13.28,0.032,271.8
2021-08-18T08:10:03,42.805,6.029,-0.041,0.035,-0.002,107.0,106.0,104.0,13.4,1505.2,326.5,-0.7,1.8,2470.542,13.28,0.053,310.5
2021-08-18T08:13:03,42.805,6.029,-0.024,0.038,0.019,107.0,107.0,104.0,13.3,1505.2,326.0,-0.7,1.8,2470.499,13.28,0.044,327.7
2021-08-18T08:16:03,42.805,6.029,-0.025,0.038,-0.015,106.0,105.0,104.0,13.3,1505.2,329.1,-0.7,1.8,2470.493,13.29,0.045,326.7
2021-08-18T08:19:03,42.805,6.029,-0.034,0.036,0.022,105.0,106.0,104.0,13.4,1505.2,327.3,-0.8,1.8,2470.493,13.29,0.049,316.6
2021-08-18T08:22:03,42.805,6.029,-0.052,0.02,0.003,107.0,106.0,105.0,13.4,1505.2,328.5,-0.7,1.8,2470.5,13.29,0.055,291.0
2021-08-18T08:25:03,42.805,6.029,-0.027,0.034,-0.026,108.0,107.0,104.0,13.4,1505.2,326.0,-0.8,1.8,2470.491,13.29,0.043,321.5
2021-08-18T08:28:03,42.805,6.029,-0.026,0.017,-0.004,107.0,107.0,104.0,13.3,1505.2,326.7,-0.8,1.8,2470.488,13.29,0.031,303.2
2021-08-18T08:31:03,42.805,6.029,-0.029,0.028,0.001,106.0,106.0,104.0,13.3,1505.2,328.4,-0.7,1.8,2470.504,13.29,0.04,314.0
2021-08-18T08:34:03,42.805,6.029,-0.045,0.025,-0.038,106.0,107.0,103.0,13.3,1505.2,326.1,-0.8,1.8,2470.468,13.29,0.051,299.1
2021-08-18T08:37:03,42.805,6.029,-0.038,0.009,-0.014,106.0,106.0,104.0,13.4,1505.2,330.8,-0.7,1.8,2470.519,13.29,0.039,283.3
2021-08-18T08:40:03,42.805,6.029,-0.021,0.031,-0.012,106.0,106.0,104.0,13.4,1505.2,326.4,-0.8,1.8,2470.478,13.29,0.037,325.9
2021-08-18T08:43:03,42.805,6.029,-0.014,0.008,-0.007,106.0,107.0,104.0,13.4,1505.2,327.2,-0.7,1.8,2470.477,13.29,0.016,299.7
2021-08-18T08:46:03,42.805,6.029,-0.035,0.018,-0.002,107.0,105.0,104.0,13.3,1505.2,328.2,-0.7,1.8,2470.505,13.29,0.039,297.2
2021-08-18T08:49:03,42.805,6.029,-0.036,0.041,0.012,105.0,106.0,104.0,13.4,1505.2,330.3,-0.8,1.8,2470.437,13.29,0.054,318.7
2021-08-18T08:52:03,42.805,6.029,-0.03,0.019,-0.007,105.0,107.0,104.0,13.4,1505.2,327.5,-0.8,1.8,2470.463,13.29,0.035,302.3
2021-08-18T08:55:03,42.805,6.029,-0.042,0.023,0.007,106.0,107.0,103.0,13.4,1505.2,326.9,-0.8,1.8,2470.458,13.29,0.047,298.7
2021-08-18T08:58:03,42.805,6.029,-0.056,0.013,-0.016,105.0,106.0,104.0,13.3,1505.2,325.8,-0.8,1.8,2470.479,13.29,0.057,283.1
2021-08-18T09:04:03,42.805,6.029,-0.045,0.006,-0.007,107.0,107.0,104.0,13.4,1505.2,326.7,-0.8,1.8,2470.532,13.28,0.045,277.6
2021-08-18T09:07:03,42.805,6.029,-0.054,0.022,0.035,106.0,106.0,103.0,13.4,1505.2,328.5,-0.7,1.8,2470.495,13.28,0.058,292.2
2021-08-18T09:10:03,42.805,6.029,-0.034,0.022,0.001,107.0,106.0,104.0,13.3,1505.2,327.5,-0.7,1.8,2470.471,13.28,0.04,302.9
2021-08-18T09:13:03,42.805,6.029,-0.052,0.044,-0.022,106.0,106.0,104.0,13.4,1505.2,328.7,-0.8,1.8,2470.48,13.28,0.068,310.2
2021-08-18T09:16:03,42.805,6.029,-0.04,0.002,-0.027,105.0,106.0,104.0,13.4,1505.2,326.1,-0.8,1.8,2470.491,13.28,0.04,272.9
2021-08-18T09:19:03,42.805,6.029,-0.04,0.03,0.001,106.0,105.0,105.0,13.3,1505.2,327.2,-0.8,1.8,2470.494,13.28,0.05,306.9
2021-08-18T09:22:03,42.805,6.029,-0.025,0.03,0.002,106.0,106.0,104.0,13.4,1505.2,328.3,-0.7,1.8,2470.446,13.29,0.039,320.2
2021-08-18T09:25:03,42.805,6.029,-0.059,-0.001,-0.013,105.0,108.0,106.0,13.4,1505.2,326.6,-0.7,1.8,2470.512,13.29,0.059,269.0
2021-08-18T09:28:03,42.805,6.029,-0.036,0.027,-0.004,108.0,106.0,104.0,13.4,1505.2,328.2,-0.7,1.8,2470.489,13.29,0.045,306.9
2021-08-18T09:31:03,42.805,6.029,-0.047,0.016,0.013,106.0,107.0,103.0,13.3,1505.2,325.8,-0.7,1.8,2470.488,13.29,0.049,288.8
2021-08-18T09:34:03,42.805,6.029,-0.035,0.031,0.002,106.0,106.0,105.0,13.3,1505.2,331.1,-0.8,1.8,2470.436,13.29,0.046,311.5
2021-08-18T09:37:03,42.805,6.029,-0.035,0.02,0.032,107.0,105.0,104.0,13.4,1505.2,326.5,-0.8,1.8,2470.462,13.29,0.04,299.7
2021-08-18T09:40:03,42.805,6.029,-0.04,0.033,0.013,108.0,105.0,104.0,13.4,1505.2,325.5,-0.8,1.8,2470.46,13.29,0.051,309.5
2021-08-18T09:43:03,42.805,6.029,-0.045,0.023,-0.018,106.0,106.0,104.0,13.4,1505.2,328.3,-0.7,1.8,2470.479,13.28,0.05,297.1
2021-08-18T09:46:03,42.805,6.029,-0.041,0.032,-0.025,106.0,105.0,104.0,13.4,1505.2,328.3,-0.8,1.8,2470.44,13.29,0.052,308.0
2021-08-18T09:49:03,42.805,6.029,-0.028,0.013,0.001,106.0,106.0,103.0,13.4,1505.2,328.2,-0.7,1.9,2470.485,13.29,0.03,294.9
2021-08-18T09:52:03,42.805,6.029,-0.026,0.044,0.034,107.0,106.0,107.0,13.4,1505.2,327.5,-0.8,1.8,2470.449,13.29,0.051,329.4
2021-08-18T09:55:03,42.805,6.029,-0.029,0.02,-0.025,106.0,105.0,103.0,13.4,1505.2,328.6,-0.7,1.8,2470.447,13.29,0.035,304.6